Theta_e
306 306 306 306 305 305 305 305 304 304 304 304 304 304 304 303 303 303 303 303 302 303 303 303 303 303 303 303 303 303 303 303 303 303 303 303 303 303 302 302 302 302
307 306 306 305 305 305 305 304 304 304 304 304 304 304 304 304 304 304 303 303 303 303 303 303 303 303 303 303 303 302 302 302 302 302 302 302 302 302 302 302 302 302
307 306 306 306 305 305 304 304 304 304 304 304 304 304 304 303 303 303 303 303 303 303 303 303 303 303 303 303 303 303 303 303 302 302 302 302 301 301 301 301 301 301
307 306 306 306 305 305 304 304 304 304 304 304 303 303 303 303 303 303 303 303 303 303 303 303 303 303 303 303 303 303 303 303 303 303 302 302 302 301 301 301 301 301
306 306 306 306 305 305 305 305 305 304 304 303 303 302 302 302 302 302 302 301 301 301 301 301 301 301 302 302 302 302 302 302 302 302 302 302 302 301 301 301 301 301
306 306 306 305 305 305 305 305 304 303 303 302 302 301 301 300 300 300 300 299 299 299 299 299 299 299 299 299 300 300 300 300 300 300 301 301 300 300 300 300 300 300
305 305 305 305 304 304 304 303 303 302 302 301 300 300 299 299 298 298 297 297 297 297 297 296 296 296 296 296 296 297 296 297 297 297 297 297 297 297 297 297 297 297
305 304 304 304 303 303 303 302 302 301 300 299 299 299 298 297 297 296 295 295 295 295 294 294 294 294 294 294 294 293 293 293 293 293 293 293 293 294 293 293 293 293
304 304 303 302 302 302 302 301 301 300 299 299 298 297 297 296 296 295 295 294 294 293 293 292 292 292 292 292 292 292 292 291 291 290 291 291 291 291 291 290 290 291
303 302 302 302 301 301 300 300 299 299 298 298 297 297 296 295 295 294 294 293 293 292 291 291 290 290 290 290 290 291 291 290 290 290 290 289 289 289 289 289 289 289
302 301 301 301 300 299 299 298 298 297 297 297 296 296 295 294 294 293 293 292 291 290 290 290 289 289 289 289 289 289 289 290 290 290 289 289 289 289 289 289 289 288
301 301 300 299 298 298 297 296 296 295 295 295 294 294 293 293 293 292 292 291 290 289 289 289 288 288 288 288 288 288 288 288 289 288 289 288 288 288 288 288 288 287
300 299 299 298 297 296 295 295 294 294 293 292 292 292 292 292 292 291 290 290 289 289 288 288 287 287 287 287 286 286 286 286 287 287 287 287 287 287 287 287 287 286
299 297 297 296 295 294 294 293 293 292 291 290 290 290 290 290 289 289 289 288 288 288 287 286 286 286 286 285 285 285 285 285 285 285 285 286 286 286 285 285 285 285
296 295 295 294 293 293 292 292 291 290 289 289 289 288 288 288 288 287 287 287 287 286 286 285 285 285 284 284 283 283 283 284 284 285 285 285 285 285 285 284 284 284
294 294 293 292 291 291 290 290 289 288 288 288 288 287 287 287 286 286 286 286 285 285 285 285 284 284 283 283 283 282 282 283 283 284 284 284 284 284 283 283 283 283
292 292 291 290 290 289 288 288 287 287 287 287 287 287 286 286 285 285 285 284 284 284 284 284 284 283 283 282 282 282 281 282 282 282 282 282 281 281 281 281 282 282
291 290 289 289 288 288 288 287 287 287 287 286 286 285 285 284 284 284 284 283 283 283 283 283 282 282 282 282 282 281 281 281 281 281 280 280 279 279 279 279 279 279
289 288 288 288 288 287 287 286 286 286 285 285 284 284 284 284 283 283 283 283 282 282 282 282 281 281 281 281 281 281 281 281 280 280 279 278 278 277 277 277 277 277
288 288 287 287 286 286 285 285 284 284 283 283 283 283 283 283 283 282 282 282 282 281 281 281 280 280 280 280 280 279 279 279 278 278 277 277 276 276 276 276 275 274
287 287 286 286 285 284 284 283 283 283 282 282 282 282 282 281 281 281 281 281 280 280 280 280 279 279 279 279 278 278 278 278 277 277 276 276 276 275 275 274 273 273
286 285 285 284 283 283 283 282 282 282 282 281 281 281 281 281 280 280 280 279 279 279 279 278 278 278 278 278 277 277 277 277 276 276 275 275 274 274 274 273 272 272
284 283 283 282 282 282 282 281 281 281 281 281 280 280 280 280 280 279 279 279 278 278 278 278 278 277 277 277 276 276 275 275 274 274 274 274 274 273 273 273 272 271
283 282 281 281 281 281 281 280 280 280 280 280 280 280 279 279 279 279 278 278 278 278 277 277 277 277 276 276 275 274 274 274 274 273 273 273 273 273 272 271 271 270
281 281 280 280 280 280 280 280 280 280 280 279 279 279 279 278 278 278 278 278 278 277 277 276 276 276 275 275 274 274 273 273 273 273 273 272 271 271 270 270 269 269
280 280 280 280 280 280 279 279 279 279 279 279 279 279 278 278 278 278 277 277 277 276 276 275 275 275 275 274 274 273 272 272 271 271 271 270 270 269 268 268 267 267
Wind_Speed
15 15 16 16 16 16 17 17 18 18 17 18 18 18 18 18 18 18 18 18 17 17 16 16 17 17 18 18 19 19 19 19 20 21 21 21 21 21 22 22 22 22
15 15 15 15 16 16 16 16 16 16 16 17 17 17 18 18 18 18 18 17 17 17 16 16 16 16 17 18 18 19 19 19 19 20 21 22 22 22 23 24 24 24
14 14 14 15 16 16 16 15 15 16 16 16 17 18 18 18 18 18 18 18 18 18 17 17 16 16 16 16 17 18 18 19 19 19 20 21 22 22 23 23 23 24
13 13 14 15 16 16 16 15 16 16 17 17 17 18 18 18 18 18 18 18 18 18 18 18 17 16 16 16 16 17 17 17 18 18 19 19 20 21 22 22 22 23
12 13 14 15 15 16 15 16 17 17 17 18 18 18 18 18 18 18 19 19 19 19 19 18 18 17 17 16 16 16 17 17 17 17 18 19 20 21 21 21 21 22
11 12 13 14 15 15 15 17 17 17 18 18 18 18 18 18 19 19 20 20 20 20 20 20 19 19 18 18 18 18 17 18 18 18 18 18 19 20 21 21 21 21
11 11 12 13 13 14 15 16 16 17 18 18 17 18 18 19 19 20 20 20 20 20 21 21 21 20 20 20 20 19 19 19 19 19 19 19 19 20 21 22 22 22
10 10 11 11 12 13 15 16 16 17 17 16 17 18 18 19 20 20 20 20 20 21 21 22 22 22 22 22 21 21 21 21 22 22 22 22 22 23 23 24 24 24
8 8 9 10 12 14 14 15 15 15 15 16 17 18 18 19 19 19 20 20 21 21 22 22 23 23 23 23 23 23 23 23 24 25 25 25 25 26 26 26 26 26
6 7 9 10 12 13 13 14 14 14 15 16 16 17 18 18 18 19 19 20 21 22 23 24 24 25 25 26 25 25 26 25 26 26 27 27 28 28 29 29 29 30
6 7 9 10 11 12 12 13 13 14 14 15 16 17 17 18 18 19 20 21 22 23 24 25 25 26 27 27 27 28 28 28 28 28 28 29 29 30 30 31 31 32
6 7 8 10 11 11 12 12 13 13 14 15 16 16 17 18 19 20 21 22 23 24 25 26 27 28 28 29 30 30 31 32 32 32 32 32 32 32 33 33 33 33
6 7 8 9 10 11 11 12 13 14 15 16 16 17 17 18 19 21 22 24 25 26 27 28 29 30 31 32 33 34 34 35 35 36 36 36 36 36 36 36 35 35
5 7 8 9 9 10 11 12 14 15 16 17 18 18 19 20 21 22 23 24 25 27 28 29 30 31 33 34 35 36 36 36 37 37 38 38 38 38 38 37 37 36
5 6 7 7 8 9 11 13 14 16 17 18 19 20 21 21 22 22 23 23 24 25 27 28 29 30 32 33 34 35 36 36 36 36 37 38 38 38 38 38 37 37
4 5 6 7 8 10 12 14 15 16 18 18 20 21 21 22 23 23 24 24 25 25 26 27 29 30 31 32 33 35 36 37 36 36 37 37 38 38 38 38 38 38
4 5 7 8 10 12 14 15 16 17 18 19 20 21 22 23 24 25 26 27 27 28 28 29 30 31 32 33 34 36 37 38 38 39 38 38 39 39 39 40 40 40
4 6 8 10 11 13 14 16 17 17 18 19 20 21 22 23 25 26 28 29 29 30 31 31 32 33 33 34 36 37 37 38 39 40 40 40 39 39 40 40 41 41
5 7 9 10 12 13 14 15 16 17 18 19 20 21 22 23 25 26 28 29 30 31 32 33 34 34 35 36 37 37 38 39 40 40 40 39 39 40 40 39 39 39
6 7 9 10 11 13 14 15 16 17 18 19 21 22 23 24 25 26 28 29 30 32 33 34 35 36 37 37 37 37 39 40 41 40 40 39 39 39 39 38 37 36
6 7 8 10 11 12 13 14 16 17 19 20 22 24 25 26 27 28 30 31 32 33 35 35 36 37 37 37 38 39 40 41 42 41 41 40 39 39 38 37 36 36
6 7 8 10 11 12 13 15 17 19 21 22 24 25 26 28 29 31 32 33 34 36 36 37 38 38 38 38 39 40 41 42 42 42 41 40 39 39 40 40 39 39
6 7 9 10 11 12 14 16 19 20 22 24 25 26 28 29 31 32 33 34 35 36 37 38 38 38 38 39 38 38 39 41 41 40 39 39 40 41 41 41 40 40
6 7 9 10 12 14 16 18 20 22 24 25 27 28 29 30 31 32 33 34 35 36 37 38 38 38 37 37 37 37 37 38 39 39 39 40 41 41 40 40 39 38
6 8 9 11 13 16 18 20 21 23 25 26 28 29 30 31 32 33 34 35 36 36 37 37 37 37 35 35 36 36 36 36 38 39 39 39 39 40 40 39 37 36
6 8 10 12 14 16 18 20 22 23 25 26 27 29 30 31 33 34 35 36 36 36 36 35 35 35 35 35 35 34 34 34 35 37 37 38 38 38 38 37 34 32
Wind_Direction
27 24 21 20 19 17 15 12 10 7 5 5 4 2 1 359 356 353 349 348 346 343 339 333 328 324 321 318 316 314 312 310 309 308 307 307 307 306 307 308 309 310
25 24 21 20 19 18 17 15 11 9 9 9 9 7 5 3 0 358 355 353 351 350 349 345 340 335 331 327 325 323 320 318 316 313 312 311 310 309 307 307 308 308
23 22 19 18 19 18 17 15 11 11 11 10 8 6 5 3 2 1 359 358 356 356 356 355 352 347 342 339 335 332 330 328 327 324 321 319 317 316 315 314 313 312
24 22 20 19 19 18 15 11 10 12 11 9 9 8 6 4 3 2 2 2 2 2 2 1 1 359 355 351 346 343 341 340 338 335 333 331 329 328 327 325 324 322
29 25 25 24 22 19 15 11 13 13 12 12 12 10 8 7 5 5 6 6 6 6 6 5 6 5 4 2 359 355 352 351 350 347 343 342 342 341 340 339 338 335
34 31 30 28 24 20 15 15 17 15 14 14 12 10 10 10 9 9 9 8 8 7 6 7 7 7 7 7 5 3 1 359 358 356 352 351 350 349 348 347 347 346
39 36 33 28 24 19 17 19 19 17 16 14 10 10 11 10 9 10 10 9 7 5 5 5 5 6 6 6 6 5 4 2 359 358 356 354 352 350 350 350 349 348
38 34 32 27 22 19 19 19 17 17 16 11 8 9 8 7 6 7 7 6 4 3 4 3 3 3 3 3 3 3 3 3 0 358 356 354 353 350 350 349 348 346
34 30 29 22 17 16 16 15 13 13 11 7 7 7 4 4 4 3 2 1 1 1 2 2 1 1 1 360 359 359 359 0 359 358 356 354 353 351 350 348 346 345
26 26 22 14 11 11 10 10 10 8 6 4 3 2 2 3 2 1 360 359 359 0 360 360 360 359 359 358 356 356 355 355 355 355 354 353 352 350 348 347 345 344
21 17 10 6 7 8 8 9 7 4 2 360 359 360 359 359 358 358 358 358 359 360 359 358 357 356 355 354 353 353 351 351 350 350 350 350 348 347 346 344 343 342
14 5 2 4 6 7 7 7 4 1 360 358 359 359 356 355 355 355 357 358 358 358 357 355 355 353 352 351 351 350 349 348 347 347 346 346 344 343 342 341 340 339
3 358 0 3 3 4 3 1 360 359 359 0 360 357 355 355 355 355 356 356 355 354 354 354 353 352 351 351 350 349 348 346 345 344 344 343 341 340 338 337 337 337
360 1 3 3 1 1 359 357 358 359 0 1 359 358 358 358 358 358 356 355 353 353 352 352 351 350 351 350 349 347 345 343 343 341 340 339 338 336 336 335 334 334
9 5 3 2 359 357 357 358 359 0 0 360 358 359 360 359 358 356 354 353 352 351 350 349 348 348 349 348 346 344 342 340 338 337 336 335 333 333 332 332 331 331
13 4 360 359 358 359 1 2 2 1 360 358 357 357 357 356 355 352 350 350 350 349 348 346 346 346 346 345 343 341 339 337 335 335 334 333 332 331 330 329 328 327
11 8 4 2 3 4 4 3 1 359 356 354 354 354 353 353 352 350 349 348 348 347 346 345 344 344 343 342 341 340 338 336 336 336 336 335 334 332 330 329 327 326
10 9 6 4 4 2 0 359 357 353 351 351 351 352 352 351 349 348 348 347 346 346 345 344 343 342 341 340 338 338 336 334 335 337 336 336 335 333 332 330 329 329
9 5 3 2 360 359 357 355 352 350 350 351 351 351 350 349 348 347 346 344 343 343 342 342 341 340 339 339 337 336 335 333 334 335 335 334 334 333 333 333 333 333
7 1 359 359 358 358 355 353 352 352 352 352 351 351 349 347 346 345 343 342 342 341 341 341 341 341 340 339 339 338 335 334 335 335 335 334 334 334 334 334 335 335
359 358 359 359 359 358 355 353 353 353 354 354 353 352 350 349 347 346 345 345 344 343 343 342 342 342 341 340 340 338 335 334 334 334 334 335 335 336 336 336 336 336
360 1 0 0 0 358 357 356 356 356 356 355 353 352 350 349 349 348 347 346 345 344 343 342 342 341 341 340 339 338 336 334 334 335 335 337 337 335 335 334 335 336
9 7 3 4 3 2 2 1 360 358 356 354 354 352 351 350 348 347 346 345 344 343 342 341 340 340 340 340 339 338 336 335 335 335 335 335 334 333 333 334 334 335
13 10 8 9 7 6 7 5 1 358 356 355 354 352 351 349 347 345 345 343 341 341 340 339 338 339 339 339 339 339 337 334 333 332 332 332 331 332 333 334 334 334
16 15 15 14 11 8 6 4 0 357 355 354 352 350 349 346 344 343 342 341 339 339 338 338 337 337 338 338 338 337 336 332 330 329 331 332 332 333 333 334 335 335
21 19 16 13 10 6 3 360 356 354 352 350 349 347 346 344 342 341 340 339 338 337 338 337 336 336 337 337 336 334 333 331 329 330 332 333 333 334 335 335 337 337